Погода в Коврове

Россия / Калининградская область     54°54′34″N   20°24′08″E
темп.,
°C
ветер,
м/с
пор.,
м/с
влажн.,
%
обл.,
%
осадки,
мм/ч
давл.,
гПа
погр.,
м
18 апреля, вс
вс1823:00+8всв448480 0.0 102117
02:00+6всв449195 0.0 102127
05:00+6всв449461 0.0 102133
08:00+6всв469897 0.0 102168
11:00+6всв459781 0.0 102285
14:00+6с339793 0.1 102160
17:00+8с339589 2.3 102030
20:00+8сз1195100 7.1 102114
19 апреля, пн
пн1923:00+9в44889 1.2 102123
02:00+7всв56850 1.2 102146
05:00+6в46895 0.0 102146
08:00+6всв57885 0.0 102282
11:00+6св46895 0.0 102286
14:00+7ссв45836 0.0 102173
17:00+8св577998 0.0 102154
20:00+9в4477100 0.0 102133
20 апреля, вт
вт2023:00+8в44815 0.0 102137
02:00+6в338689 0.0 102024
05:00+6в339059 0.0 102023
08:00+6в338978 0.0 101935
11:00+5св3391100 0.0 101887
14:00+6с458792 0.1 101781
17:00+7ссз4685100 0.0 101580
20:00+6ссз47865 0.0 101479
21 апреля, ср
ср2123:00+6ссз45875 0.0 101350
02:00+5сз339061 0.0 101241
05:00+5зсз468998 0.0 101185
08:00+6зсз57865 0.0 1010115
11:00+6зсз45845 0.0 101098
14:00+7з56815 0.0 1009123
17:00+7з467989 0.0 100899
20:00+7зюз448012 0.0 100742
22 апреля, чт
чт2223:00+4з91293100 0.8 1007681
02:00+5юз812824 1.6 1006726
05:00+4юз111782100 0.0 10051262
08:00+5юз131877100 0.4 10051222
11:00+4зюз121596100 0.6 1006944
14:00+5зюз10137880 1.0 10081267
17:00+5зюз10147520 0.1 10081362
20:00+5зюз111479100 0.3 10081182